Time,TemperatureF,DewpointF,PressureIn,WindDirection,WindDirectionDegrees,WindSpeedMPH,WindSpeedGustMPH,Humidity,HourlyPrecipIn,Conditions,Clouds,dailyrainin,SoftwareType,DateUTC
2013-01-22 00:04:00,7.0,-6.0,29.85,North,4,1.0,3.0,53,0.00,,,0.00,,2013-01-22 05:04:00,
2013-01-22 00:12:00,7.0,-6.0,29.85,North,4,1.0,3.0,53,0.00,,,0.00,,2013-01-22 05:12:00,
2013-01-22 00:23:00,6.0,-7.0,29.84,North,354,1.0,3.0,53,0.00,,,0.00,,2013-01-22 05:23:00,
2013-01-22 00:32:00,6.0,-7.0,29.83,North,11,3.0,4.0,55,0.00,,,0.00,,2013-01-22 05:32:00,
2013-01-22 00:43:00,6.0,-7.0,29.83,North,11,3.0,4.0,55,0.00,,,0.00,,2013-01-22 05:43:00,
2013-01-22 00:53:00,5.0,-7.0,29.82,NE,34,2.0,6.0,57,0.00,,,0.00,,2013-01-22 05:53:00,
2013-01-22 01:02:00,5.0,-5.0,29.82,NE,46,3.0,6.0,61,0.00,,,0.00,,2013-01-22 06:02:00,
2013-01-22 01:12:00,5.0,-5.0,29.82,NE,46,3.0,6.0,61,0.00,,,0.00,,2013-01-22 06:12:00,
2013-01-22 01:22:00,4.0,-6.0,29.81,NNE,33,3.0,6.0,62,0.00,,,0.00,,2013-01-22 06:22:00,
2013-01-22 01:33:00,3.0,-6.0,29.81,ENE,68,0.0,3.0,64,0.00,,,0.00,,2013-01-22 06:33:00,
2013-01-22 01:43:00,3.0,-6.0,29.81,ENE,68,0.0,3.0,64,0.00,,,0.00,,2013-01-22 06:43:00,
2013-01-22 01:53:00,3.0,-6.0,29.82,ENE,67,2.0,3.0,65,0.00,,,0.00,,2013-01-22 06:53:00,
2013-01-22 02:02:00,3.0,-6.0,29.81,NE,39,2.0,3.0,65,0.00,,,0.00,,2013-01-22 07:02:00,
2013-01-22 02:12:00,3.0,-6.0,29.81,NE,39,2.0,3.0,65,0.00,,,0.00,,2013-01-22 07:12:00,
2013-01-22 02:22:00,3.0,-6.0,29.81,NE,56,3.0,4.0,66,0.00,,,0.00,,2013-01-22 07:22:00,
2013-01-22 02:32:00,2.0,-6.0,29.82,NE,34,0.0,3.0,67,0.00,,,0.00,,2013-01-22 07:32:00,
2013-01-22 02:42:00,2.0,-6.0,29.82,NE,34,0.0,3.0,67,0.00,,,0.00,,2013-01-22 07:42:00,
2013-01-22 02:53:00,2.0,-6.0,29.81,NE,44,1.0,3.0,68,0.00,,,0.00,,2013-01-22 07:53:00,
2013-01-22 03:02:00,2.0,-6.0,29.81,NNW,340,2.0,2.0,68,0.00,,,0.00,,2013-01-22 08:02:00,
2013-01-22 03:12:00,2.0,-6.0,29.81,NNW,340,2.0,2.0,68,0.00,,,0.00,,2013-01-22 08:12:00,
2013-01-22 03:22:00,2.0,-6.0,29.79,North,352,4.0,7.0,70,0.00,,,0.00,,2013-01-22 08:22:00,
2013-01-22 03:32:00,2.0,-6.0,29.80,NNW,335,3.0,4.0,69,0.00,,,0.00,,2013-01-22 08:32:00,
2013-01-22 03:42:00,2.0,-6.0,29.80,NNW,335,3.0,4.0,69,0.00,,,0.00,,2013-01-22 08:42:00,
2013-01-22 03:53:00,2.0,-6.0,29.80,NE,51,0.0,4.0,68,0.00,,,0.00,,2013-01-22 08:53:00,
2013-01-22 04:02:00,0.0,-7.0,29.80,East,94,0.0,1.0,71,0.00,,,0.00,,2013-01-22 09:02:00,
2013-01-22 04:12:00,0.0,-7.0,29.80,East,94,0.0,1.0,71,0.00,,,0.00,,2013-01-22 09:12:00,
2013-01-22 04:22:00,0.0,-7.0,29.80,NNE,27,0.0,1.0,71,0.00,,,0.00,,2013-01-22 09:22:00,
2013-01-22 04:32:00,0.0,-7.0,29.80,NNE,32,1.0,2.0,72,0.00,,,0.00,,2013-01-22 09:32:00,
2013-01-22 04:43:00,0.0,-7.0,29.80,NNE,32,1.0,2.0,72,0.00,,,0.00,,2013-01-22 09:43:00,
2013-01-22 04:53:00,1.0,-6.0,29.80,NE,44,0.0,3.0,72,0.00,,,0.00,,2013-01-22 09:53:00,
2013-01-22 05:02:00,2.0,-6.0,29.80,East,90,3.0,5.0,69,0.00,,,0.00,,2013-01-22 10:02:00,
2013-01-22 05:12:00,2.0,-6.0,29.80,East,90,3.0,5.0,69,0.00,,,0.00,,2013-01-22 10:12:00,
2013-01-22 05:22:00,2.0,-6.0,29.80,NE,51,4.0,6.0,67,0.00,,,0.00,,2013-01-22 10:22:00,
2013-01-22 05:32:00,2.0,-7.0,29.80,NE,54,2.0,4.0,66,0.00,,,0.00,,2013-01-22 10:32:00,
2013-01-22 05:42:00,2.0,-7.0,29.80,NE,54,2.0,4.0,66,0.00,,,0.00,,2013-01-22 10:42:00,
2013-01-22 05:53:00,1.0,-7.0,29.80,NE,34,1.0,4.0,67,0.00,,,0.00,,2013-01-22 10:53:00,
2013-01-22 06:02:00,1.0,-7.0,29.80,North,4,4.0,6.0,68,0.00,,,0.00,,2013-01-22 11:02:00,
2013-01-22 06:12:00,1.0,-7.0,29.80,North,4,4.0,6.0,68,0.00,,,0.00,,2013-01-22 11:12:00,
2013-01-22 06:23:00,1.0,-7.0,29.80,NNE,26,1.0,6.0,69,0.00,,,0.00,,2013-01-22 11:23:00,
2013-01-22 06:33:00,0.0,-8.0,29.80,NNE,24,2.0,3.0,69,0.00,,,0.00,,2013-01-22 11:33:00,
2013-01-22 06:43:00,0.0,-8.0,29.80,NNE,24,2.0,3.0,69,0.00,,,0.00,,2013-01-22 11:43:00,
2013-01-22 06:53:00,0.0,-8.0,29.79,NNW,345,5.0,6.0,69,0.00,,,0.00,,2013-01-22 11:53:00,
2013-01-22 07:04:00,1.0,-7.0,29.78,NNE,32,3.0,8.0,69,0.00,,,0.00,,2013-01-22 12:04:00,
2013-01-22 07:13:00,1.0,-7.0,29.78,NNE,32,3.0,8.0,69,0.00,,,0.00,,2013-01-22 12:13:00,
2013-01-22 07:23:00,0.0,-8.0,29.78,NE,44,3.0,8.0,68,0.00,,,0.00,,2013-01-22 12:23:00,
2013-01-22 07:33:00,0.0,-8.0,29.78,NE,44,3.0,8.0,68,0.00,,,0.00,,2013-01-22 12:33:00,
2013-01-22 07:43:00,0.0,-7.0,29.79,ESE,115,0.0,0.0,70,0.00,,,0.00,,2013-01-22 12:43:00,
2013-01-22 07:53:00,-1.0,-8.0,29.79,East,80,0.0,1.0,72,0.00,,,0.00,,2013-01-22 12:53:00,
2013-01-22 08:04:00,-1.0,-8.0,29.78,NE,35,3.0,3.0,72,0.00,,,0.00,,2013-01-22 13:04:00,
2013-01-22 08:14:00,-1.0,-8.0,29.78,NE,35,3.0,3.0,72,0.00,,,0.00,,2013-01-22 13:14:00,
2013-01-22 08:23:00,-1.0,-8.0,29.79,North,356,0.0,3.0,72,0.00,,,0.00,,2013-01-22 13:23:00,
2013-01-22 08:33:00,-1.0,-8.0,29.80,ENE,68,0.0,1.0,71,0.00,,,0.00,,2013-01-22 13:33:00,
2013-01-22 08:43:00,-1.0,-8.0,29.80,ENE,68,0.0,1.0,71,0.00,,,0.00,,2013-01-22 13:43:00,
2013-01-22 08:54:00,0.0,-7.0,29.80,ESE,115,0.0,1.0,71,0.00,,,0.00,,2013-01-22 13:54:00,
2013-01-22 09:03:00,0.0,-7.0,29.81,East,101,0.0,3.0,71,0.00,,,0.00,,2013-01-22 14:03:00,
2013-01-22 09:13:00,0.0,-7.0,29.81,East,101,0.0,3.0,71,0.00,,,0.00,,2013-01-22 14:13:00,
2013-01-22 09:23:00,1.0,-6.0,29.82,ESE,116,3.0,3.0,70,0.00,,,0.00,,2013-01-22 14:23:00,
2013-01-22 09:34:00,1.0,-7.0,29.82,East,82,4.0,4.0,69,0.00,,,0.00,,2013-01-22 14:34:00,
2013-01-22 09:44:00,1.0,-7.0,29.82,East,82,4.0,4.0,69,0.00,,,0.00,,2013-01-22 14:44:00,
2013-01-22 09:54:00,1.0,-7.0,29.81,NE,49,3.0,7.0,69,0.00,,,0.00,,2013-01-22 14:54:00,
2013-01-22 10:03:00,1.0,-7.0,29.82,ENE,70,3.0,3.0,68,0.00,,,0.00,,2013-01-22 15:03:00,
2013-01-22 10:13:00,1.0,-7.0,29.82,ENE,70,3.0,3.0,68,0.00,,,0.00,,2013-01-22 15:13:00,
2013-01-22 10:24:00,2.0,-6.0,29.82,ENE,62,3.0,4.0,67,0.00,,,0.00,,2013-01-22 15:24:00,
2013-01-22 10:34:00,2.0,-7.0,29.82,NE,34,3.0,5.0,65,0.00,,,0.00,,2013-01-22 15:34:00,
2013-01-22 10:43:00,2.0,-7.0,29.82,NE,34,3.0,5.0,65,0.00,,,0.00,,2013-01-22 15:43:00,
2013-01-22 10:54:00,2.0,-7.0,29.82,NE,37,3.0,6.0,64,0.00,,,0.00,,2013-01-22 15:54:00,
2013-01-22 11:03:00,2.0,-8.0,29.81,ESE,114,2.0,3.0,62,0.00,,,0.00,,2013-01-22 16:03:00,
2013-01-22 11:13:00,2.0,-8.0,29.81,ESE,114,2.0,3.0,62,0.00,,,0.00,,2013-01-22 16:13:00,
2013-01-22 11:23:00,3.0,-7.0,29.80,ESE,105,1.0,5.0,62,0.00,,,0.00,,2013-01-22 16:23:00,
2013-01-22 11:33:00,3.0,-7.0,29.79,East,94,1.0,2.0,61,0.00,,,0.00,,2013-01-22 16:33:00,
2013-01-22 11:43:00,3.0,-7.0,29.79,East,94,1.0,2.0,61,0.00,,,0.00,,2013-01-22 16:43:00,
2013-01-22 11:54:00,4.0,-7.0,29.79,NE,41,1.0,4.0,60,0.00,,,0.00,,2013-01-22 16:54:00,
2013-01-22 12:03:00,4.0,-7.0,29.79,East,79,0.0,3.0,59,0.00,,,0.00,,2013-01-22 17:03:00,
2013-01-22 12:13:00,4.0,-7.0,29.79,East,79,0.0,3.0,59,0.00,,,0.00,,2013-01-22 17:13:00,
2013-01-22 12:23:00,6.0,-6.0,29.79,ENE,63,0.0,3.0,58,0.00,,,0.00,,2013-01-22 17:23:00,
2013-01-22 12:34:00,7.0,-6.0,29.79,ESE,106,0.0,2.0,53,0.00,,,0.00,,2013-01-22 17:34:00,
2013-01-22 12:44:00,7.0,-6.0,29.79,ESE,106,0.0,2.0,53,0.00,,,0.00,,2013-01-22 17:44:00,
2013-01-22 12:54:00,8.0,-6.0,29.79,SE,140,1.0,2.0,52,0.00,,,0.00,,2013-01-22 17:54:00,
2013-01-22 13:04:00,9.0,-6.0,29.78,ESE,107,1.0,3.0,50,0.00,,,0.00,,2013-01-22 18:04:00,
2013-01-22 13:13:00,9.0,-6.0,29.78,ESE,107,1.0,3.0,50,0.00,,,0.00,,2013-01-22 18:13:00,
2013-01-22 13:24:00,10.0,-8.0,29.78,NW,315,3.0,6.0,44,0.00,,,0.00,,2013-01-22 18:24:00,
2013-01-22 13:34:00,10.0,-8.0,29.77,NNE,23,3.0,4.0,44,0.00,,,0.00,,2013-01-22 18:34:00,
2013-01-22 13:43:00,10.0,-8.0,29.77,NNE,23,3.0,4.0,44,0.00,,,0.00,,2013-01-22 18:43:00,
2013-01-22 13:54:00,11.0,-8.0,29.78,NNE,30,2.0,7.0,41,0.00,,,0.00,,2013-01-22 18:54:00,
2013-01-22 14:03:00,12.0,-9.0,29.78,NW,320,3.0,6.0,38,0.00,,,0.00,,2013-01-22 19:03:00,
2013-01-22 14:13:00,12.0,-9.0,29.78,NW,320,3.0,6.0,38,0.00,,,0.00,,2013-01-22 19:13:00,
2013-01-22 14:24:00,12.0,-9.0,29.78,NW,320,3.0,6.0,38,0.00,,,0.00,,2013-01-22 19:24:00,
2013-01-22 14:34:00,11.0,-9.0,29.79,NNW,346,1.0,3.0,39,0.00,,,0.00,,2013-01-22 19:34:00,
2013-01-22 14:43:00,11.0,-9.0,29.79,NNW,346,1.0,3.0,39,0.00,,,0.00,,2013-01-22 19:43:00,
2013-01-22 14:54:00,11.0,-9.0,29.79,NNE,31,0.0,3.0,39,0.00,,,0.00,,2013-01-22 19:54:00,
2013-01-22 15:03:00,11.0,-9.0,29.80,NNE,33,3.0,3.0,40,0.00,,,0.00,,2013-01-22 20:03:00,
2013-01-22 15:13:00,11.0,-9.0,29.80,NNE,33,3.0,3.0,40,0.00,,,0.00,,2013-01-22 20:13:00,
2013-01-22 15:23:00,11.0,-9.0,29.80,North,356,1.0,3.0,39,0.00,,,0.00,,2013-01-22 20:23:00,
2013-01-22 15:33:00,11.0,-9.0,29.80,NE,34,3.0,3.0,40,0.00,,,0.00,,2013-01-22 20:33:00,
2013-01-22 15:43:00,11.0,-9.0,29.80,NE,34,3.0,3.0,40,0.00,,,0.00,,2013-01-22 20:43:00,
2013-01-22 15:53:00,11.0,-8.0,29.81,NNE,12,2.0,3.0,42,0.00,,,0.00,,2013-01-22 20:53:00,
2013-01-22 16:03:00,11.0,-8.0,29.81,NE,36,0.0,1.0,41,0.00,,,0.00,,2013-01-22 21:03:00,
2013-01-22 16:13:00,11.0,-8.0,29.81,NE,36,0.0,1.0,41,0.00,,,0.00,,2013-01-22 21:13:00,
2013-01-22 16:23:00,10.0,-8.0,29.82,ESE,105,0.0,1.0,44,0.00,,,0.00,,2013-01-22 21:23:00,
2013-01-22 16:33:00,9.0,-7.0,29.83,East,94,0.0,0.0,47,0.00,,,0.00,,2013-01-22 21:33:00,
2013-01-22 16:43:00,9.0,-7.0,29.83,East,94,0.0,0.0,47,0.00,,,0.00,,2013-01-22 21:43:00,
2013-01-22 16:53:00,8.0,-7.0,29.83,SW,233,0.0,2.0,50,0.00,,,0.00,,2013-01-22 21:53:00,
2013-01-22 17:03:00,7.0,-6.0,29.85,NW,311,0.0,1.0,54,0.00,,,0.00,,2013-01-22 22:03:00,
2013-01-22 17:13:00,7.0,-6.0,29.85,NW,311,0.0,1.0,54,0.00,,,0.00,,2013-01-22 22:13:00,
2013-01-22 17:23:00,6.0,-6.0,29.85,NW,325,0.0,1.0,58,0.00,,,0.00,,2013-01-22 22:23:00,
2013-01-22 17:33:00,6.0,-6.0,29.85,NW,325,0.0,1.0,58,0.00,,,0.00,,2013-01-22 22:33:00,
2013-01-22 17:43:00,5.0,-4.0,29.86,NW,307,0.0,0.0,65,0.00,,,0.00,,2013-01-22 22:43:00,
2013-01-22 17:53:00,5.0,-3.0,29.87,WNW,302,0.0,1.0,68,0.00,,,0.00,,2013-01-22 22:53:00,
2013-01-22 18:03:00,4.0,-4.0,29.87,NW,304,0.0,1.0,69,0.00,,,0.00,,2013-01-22 23:03:00,
2013-01-22 18:12:00,4.0,-4.0,29.87,NW,304,0.0,1.0,69,0.00,,,0.00,,2013-01-22 23:12:00,
2013-01-22 18:24:00,5.0,-3.0,29.88,NW,312,0.0,3.0,70,0.00,,,0.00,,2013-01-22 23:24:00,
2013-01-22 18:33:00,4.0,-4.0,29.88,NW,319,0.0,2.0,70,0.00,,,0.00,,2013-01-22 23:33:00,
2013-01-22 18:43:00,4.0,-4.0,29.88,NW,319,0.0,2.0,70,0.00,,,0.00,,2013-01-22 23:43:00,
2013-01-22 18:53:00,5.0,-1.0,29.89,WNW,298,3.0,7.0,75,0.00,,,0.00,,2013-01-22 23:53:00,
2013-01-22 19:03:00,6.0,-2.0,29.89,West,280,0.0,3.0,69,0.00,,,0.00,,2013-01-23 00:03:00,
2013-01-22 19:12:00,6.0,-2.0,29.89,West,280,0.0,3.0,69,0.00,,,0.00,,2013-01-23 00:12:00,
2013-01-22 19:23:00,6.0,-2.0,29.89,NW,316,0.0,3.0,68,0.00,,,0.00,,2013-01-23 00:23:00,
2013-01-22 19:33:00,5.0,-3.0,29.89,WNW,287,0.0,2.0,68,0.00,,,0.00,,2013-01-23 00:33:00,
2013-01-22 19:43:00,5.0,-3.0,29.89,WNW,287,0.0,2.0,68,0.00,,,0.00,,2013-01-23 00:43:00,
2013-01-22 19:53:00,5.0,-4.0,29.89,West,271,2.0,6.0,66,0.00,,,0.00,,2013-01-23 00:53:00,
2013-01-22 20:03:00,6.0,-4.0,29.89,WSW,248,1.0,6.0,64,0.00,,,0.00,,2013-01-23 01:03:00,
2013-01-22 20:13:00,6.0,-4.0,29.89,WSW,248,1.0,6.0,64,0.00,,,0.00,,2013-01-23 01:13:00,
2013-01-22 20:23:00,6.0,-5.0,29.89,WNW,300,2.0,7.0,60,0.00,,,0.00,,2013-01-23 01:23:00,
2013-01-22 20:33:00,5.0,-7.0,29.89,SW,226,0.0,4.0,58,0.00,,,0.00,,2013-01-23 01:33:00,
2013-01-22 20:43:00,5.0,-7.0,29.89,SW,226,0.0,4.0,58,0.00,,,0.00,,2013-01-23 01:43:00,
2013-01-22 20:53:00,4.0,-9.0,29.88,West,281,3.0,4.0,54,0.00,,,0.00,,2013-01-23 01:53:00,
2013-01-22 21:03:00,5.0,-10.0,29.88,WNW,283,7.0,17.0,48,0.00,,,0.00,,2013-01-23 02:03:00,
2013-01-22 21:13:00,5.0,-10.0,29.88,WNW,283,7.0,17.0,48,0.00,,,0.00,,2013-01-23 02:13:00,
2013-01-22 21:23:00,5.0,-13.0,29.89,WSW,243,4.0,17.0,43,0.00,,,0.00,,2013-01-23 02:23:00,
2013-01-22 21:33:00,5.0,-13.0,29.89,NW,309,3.0,9.0,43,0.00,,,0.00,,2013-01-23 02:33:00,
2013-01-22 21:43:00,5.0,-13.0,29.89,NW,309,3.0,9.0,43,0.00,,,0.00,,2013-01-23 02:43:00,
2013-01-22 21:53:00,4.0,-13.0,29.90,West,266,0.0,13.0,45,0.00,,,0.00,,2013-01-23 02:53:00,
2013-01-22 22:03:00,3.0,-12.0,29.91,WNW,294,2.0,7.0,48,0.00,,,0.00,,2013-01-23 03:03:00,
2013-01-22 22:13:00,3.0,-12.0,29.91,WNW,294,2.0,7.0,48,0.00,,,0.00,,2013-01-23 03:13:00,
2013-01-22 22:23:00,2.0,-11.0,29.91,NNW,340,3.0,7.0,53,0.00,,,0.00,,2013-01-23 03:23:00,
2013-01-22 22:33:00,2.0,-10.0,29.92,SSW,205,1.0,5.0,56,0.00,,,0.00,,2013-01-23 03:33:00,
2013-01-22 22:43:00,2.0,-10.0,29.92,SSW,205,1.0,5.0,56,0.00,,,0.00,,2013-01-23 03:43:00,
2013-01-22 22:53:00,1.0,-10.0,29.93,NW,317,2.0,10.0,60,0.00,,,0.00,,2013-01-23 03:53:00,
2013-01-22 23:03:00,1.0,-11.0,29.93,West,273,9.0,12.0,56,0.00,,,0.00,,2013-01-23 04:03:00,
2013-01-22 23:13:00,1.0,-11.0,29.93,West,273,9.0,12.0,56,0.00,,,0.00,,2013-01-23 04:13:00,
2013-01-22 23:23:00,0.0,-13.0,29.93,NW,316,5.0,12.0,53,0.00,,,0.00,,2013-01-23 04:23:00,
2013-01-22 23:33:00,0.0,-14.0,29.93,NW,322,3.0,10.0,51,0.00,,,0.00,,2013-01-23 04:33:00,
2013-01-22 23:43:00,0.0,-14.0,29.93,NW,322,3.0,10.0,51,0.00,,,0.00,,2013-01-23 04:43:00,
2013-01-22 23:53:00,0.0,-13.0,29.93,NW,306,2.0,10.0,52,0.00,,,0.00,,2013-01-23 04:53:00,